カタログに戻る

STARLINK-36660

運用中通信VLEO
NORAD 67848·PAYLOAD·🇺🇸 United States

打ち上げ Feb 16, 2026 から Vandenberg Space Force Base

Loading…

次のパス (今後24時間)

TLE

最新Source: CelesTrak SupGP

元期: Sep 15, 2026, 02:58 UTC

1 67848C 26033AD  26258.12409722 -.00003951  00000+0 -14306-3 0  2581
2 67848  43.0012 277.4811 0001474 265.3869  60.2554 15.27588911    10

AllMySatでSTARLINK-36660をリアルタイム追跡

Download on the App Store